Location: Winnipeg
(49.8830°N, 97.1670°W)
Time: 04:30:25
(UTC-06:00)

ISS - Pass Details

Date: 29 January 2021
Orbit: 417 x 422 km, 51.6° (Epoch: 07 March)

Event Time Altitude Azimuth Distance (km) Brightness Sun altitude
Rises 18:46:47 0° 281° (W) 2,374 1.5 -14.2°
Reaches altitude 10° 18:48:54 10° 284° (WNW) 1,510 0.1 -14.5°
Maximum altitude 18:52:16 67° 8° (N) 463 -3.7 -15.0°
Enters shadow 18:53:32 35° 80° (E) 709 -3.2 -15.2°
